Regional Weather Roundup
Issued by NWS Upton, NY

Current Version | Previous Version | Text Only | Print | Product List | Glossary Off
Versions: 1 2 3 4 5 6 7 8 9 10 11 12 13 14 15 16 17 18 19 20 21 22 23 24 25 26 27 28 29 30 31 32 33 34 35 36 37 38 39 40 41 42 43 44 45 46 47 48 49 50

000
ASUS41 KOKX 041608
RWROKX

REGIONAL WEATHER ROUNDUP
NATIONAL WEATHER SERVICE NEW YORK NY
1200 PM EDT MON MAY 04 2015

NOTE: "FAIR" INDICATES FEW OR NO CLOUDS BELOW 12,000 FEET WITH NO
SIGNIFICANT WEATHER AND/OR OBSTRUCTIONS TO VISIBILITY.

NYZ071-072-176-178-NJZ106-104-041700-
NEW YORK CITY METRO AREA


CITY           SKY/WX    TMP DP  RH WIND       PRES   REMARKS
CENTRAL PARK   SUNNY     81  45  28 MISG      30.23S
LAGUARDIA APRT MOSUNNY   80  46  30 SW7       30.20F
KENNEDY INTL   MOSUNNY   70  48  46 S7        30.23S
NEWARK/LIBERTY MOSUNNY   84  41  21 W15       30.19F
BRNX BOT. GARD   N/A     81  45  28 SE2       30.21F
TETERBORO      SUNNY     80  46  30 S10       30.18F
$$

NYZ177-179-078>081-041700-
LONG ISLAND NEW YORK

CITY           SKY/WX    TMP DP  RH WIND       PRES   REMARKS
FARMINGDALE    SUNNY     71  51  49 S9        30.23S
ISLIP          MOSUNNY   71  49  45 S8        30.21F
SHIRLEY        SUNNY     70  49  47 S9        30.24S
WESTHAMPTON    SUNNY     68  48  48 S10       30.25S
MONTAUK POINT    N/A     63  49  60 S9        30.24F
$$

NYZ052-065-067-041700-
HUDSON VALLEY

CITY           SKY/WX    TMP DP  RH WIND       PRES   REMARKS
WHITE PLAINS   MOSUNNY   76  52  43 S5        30.20F
NEWBURGH       MOSUNNY   79  45  29 CALM      30.18F
MONTGOMERY     SUNNY     82  36  19 SW10G24   30.15F
POUGHKEEPSIE   SUNNY     81  43  26 SW10G17   30.15F
ALBANY         MOSUNNY   77  44  30 S7        30.13F
$$

NJZ001-105-106-008-010-013-015-019>022-104-041700-
NEW JERSEY

CITY           SKY/WX    TMP DP  RH WIND       PRES   REMARKS
NEWARK/LIBERTY MOSUNNY   84  41  21 W15       30.19F
TETERBORO      SUNNY     80  46  30 S10       30.18F
CALDWELL       MOSUNNY   82  39  21 SW10G23   30.19F
MORRISTOWN     MOSUNNY   82  43  24 SW10G21   30.19F
SOMERVILLE     MOSUNNY   81  46  29 VRB7      30.18F
SUSSEX         PTSUNNY   79  38  22 SW13G23   30.19F
ANDOVER          N/A     81  38  21 SW10G20   30.20F
TRENTON        SUNNY     80  49  33 S8        30.21F
MILLVILLE      SUNNY     80  48  32 W9        30.25S
ATLANTIC CITY  MOSUNNY   81  39  22 SW12G18   30.24S
WRIGHTSTOWN    SUNNY     82  44  25 W12G20    30.20F
TOMS RIVER     PTSUNNY   84  39  20 SW8G22    30.21F
BELMAR         MOSUNNY   82  37  20 S12       30.22S
$$

PAZ047>061-062-071-041700-
EASTERN PENNSYLVANIA

CITY           SKY/WX    TMP DP  RH WIND       PRES   REMARKS
PHILADELPHIA   MOSUNNY   80  47  31 SW9       30.23F
ALLENTOWN      SUNNY     80  45  28 SW10      30.20F
SCRANTON       SUNNY     81  38  21 SW14G26   30.18F
$$

CTZ002-004>006-009-010-012-RIZ004-006-007-MAZ004-011-015-041700-
SOUTHERN NEW ENGLAND
 IN CT

CITY           SKY/WX    TMP DP  RH WIND       PRES   REMARKS
BRADLEY INTL   MOSUNNY   79  47  32 S9        30.16F
HARTFORD       SUNNY     78  49  35 S6        30.17F
DANBURY        SUNNY     79  43  27 SW10G18   30.19F
WTRBRY/OXFORD  MOSUNNY   79  48  34 SW8       30.21F
BRIDGEPORT     SUNNY     68  49  50 SW3       30.21F
MERIDEN        SUNNY     78  45  30 S12       30.19F
NEW HAVEN      MOSUNNY   66  47  50 S6        30.21F
CHESTER        FAIR      73  45  35 S7        30.22F
GROTON         SUNNY     61  50  67 S8        30.22F
WILLIMANTIC    SUNNY     79  46  31 S9        30.18F

 IN RI

CITY           SKY/WX    TMP DP  RH WIND       PRES   REMARKS
PROVIDENCE     MOSUNNY   64  50  60 SE10      30.21F
BLOCK ISLAND   SUNNY     61  46  59 SW15      30.24F
WESTERLY       SUNNY     66  47  50 SW8       30.23F

 IN MA

CITY           SKY/WX    TMP DP  RH WIND       PRES   REMARKS
BOSTON         MOSUNNY   76  48  37 S8        30.16F
WORCESTER      SUNNY     76  35  22 SW14G22   30.19F
WESTFIELD      MOSUNNY   77  46  33 S6        30.15F
PROVINCETOWN   SUNNY     64  48  55 SW16G23   30.21F
NANTUCKET      SUNNY     59  50  72 SW13      30.26S
$$

ANZ330-335-338-340-345-350-353-355-041700-
COASTAL MARINE OBSERVATIONS


STATION/POSITION TIME  SKY/WX   TEMP    WIND        PRES    VSBY  WAVE
                                AIR SEA DIR/SP/G                  HT/PER
                 (UTC)          (F)     (DEG/KT/KT) (MB)    (MI)  (FT/S)
NY HARB ENTRANCE 1550            55 53  170/  6/  8 1023.4          3/12
4S FIRE IS       1503               50                N/A           3/ 9
20S FIRE ISLAND  1550            51 48  190/  8/ 10 1024.2          3/ 9
GREAT SOUTH BAY  1500            56 58  230/  8/  8   N/A
23SW MTP         1550            50 46  210/ 10/ 10 1024.2          3/ 9
HUDSON CANYON    NOT AVBL
EXECUTION ROCKS  NOT AVBL
WESTERN LI SOUND NOT AVBL
CENTRAL LI SOUND NOT AVBL
EASTERN LI SOUND 1500            52     150/  2/  4   N/A
ROBBINS REEF     1500            64     150/ 10/ 11 1022.0
$$


>>>>>>>>>>>>>>>>>>>>>>>>>>>> KEY <<<<<<<<<<<<<<<<<<<<<<<<<<<
>                                                          <
>     SKY/WX - SKY CONDITION/PRESENT WEATHER               <
>     TMP    - TEMPERATURE IN FAHRENHEIT                   <
>     DP     - DEWPOINT IN FAHRENHEIT                      <
>     RH     - RELATIVE HUMIDITY IN PERCENT                <
>     WIND   - DIRECTION AND SPEED IN MPH                  <
>     PRES   - MEAN SEA LEVEL PRESSURE IN INCHES OF HG     <
>     WCI    - WIND CHILL INDEX                            <
>     VSB    - VISIBILITY IN MILES                         <
>     HX     - HEAT INDEX                                  <
>     TC     - TEMPERATURE IN CELSIUS                      <
>     VRB    - VARIABLE WIND DIRECTION                     <
>                                                          <
>>>>>>>>>>>>>>>>>>>>>>>>>>>> KEY <<<<<<<<<<<<<<<<<<<<<<<<<<<




USA.gov is the U.S. government's official web portal to all federal, state and local government web resources and services.